• In Kazakhstan
  • List of Countries
  • For 7 days
  • Water Temperature
  • Weather Map
  • News
  • Weather Widgets
  • user-avatar
    Login

    Hourly Weather Klagenfurt

    Today, 16 November, Saturday

    Time Temperature Precipitation Wind Pressure Humidity
    00:00 +6°C° 6.5 mm 2 mps 681 mmHg 97%
    01:00 +7°C° 0 mm 1 mps 682 mmHg 97%
    02:00 +7°C° 0.8 mm 1 mps 682 mmHg 97%
    03:00 +7°C° 0.8 mm 1 mps 682 mmHg 98%
    04:00 +7°C° 0.8 mm 1 mps 683 mmHg 98%
    05:00 +7°C° 0.3 mm 1 mps 683 mmHg 98%
    06:00 +6°C° 0.3 mm 1 mps 683 mmHg 97%
    07:00 +6°C° 0 mm 1 mps 684 mmHg 96%
    08:00 +7°C° 0.1 mm 1 mps 685 mmHg 94%
    09:00 +8°C° 0.1 mm 1 mps 685 mmHg 91%
    10:00 +8°C° 0.1 mm 1 mps 686 mmHg 88%
    11:00 +9°C° 0.1 mm 1 mps 686 mmHg 86%
    12:00 +9°C° 0.1 mm 1 mps 687 mmHg 84%
    13:00 +10°C° 0 mm 1 mps 687 mmHg 82%
    14:00 +9°C° 0 mm 1 mps 687 mmHg 85%
    15:00 +8°C° 0 mm 1 mps 687 mmHg 88%
    16:00 +7°C° 0 mm 0 mps 687 mmHg 91%
    17:00 +7°C° 0.1 mm 1 mps 687 mmHg 92%
    18:00 +7°C° 0.1 mm 1 mps 687 mmHg 93%
    19:00 +7°C° 0.1 mm 1 mps 687 mmHg 94%
    20:00 +6°C° 0.5 mm 1 mps 687 mmHg 94%
    21:00 +6°C° 0.5 mm 1 mps 686 mmHg 94%
    22:00 +6°C° 0.5 mm 1 mps 686 mmHg 95%
    23:00 +6°C° 0.2 mm 1 mps 686 mmHg 95%

    Tomorrow, 17 November, Sunday

    Time Temperature Precipitation Wind Pressure Humidity
    00:00 +6°C° 0.2 mm 1 mps 685 mmHg 95%
    01:00 +7°C° 0.2 mm 1 mps 685 mmHg 95%
    02:00 +7°C° 0.4 mm 1 mps 685 mmHg 95%
    03:00 +7°C° 0.4 mm 1 mps 684 mmHg 96%
    04:00 +7°C° 0.4 mm 1 mps 684 mmHg 96%
    05:00 +8°C° 0.1 mm 1 mps 684 mmHg 96%
    06:00 +7°C° 0.1 mm 2 mps 683 mmHg 96%
    07:00 +7°C° 0.1 mm 2 mps 683 mmHg 96%
    08:00 +8°C° 0.1 mm 2 mps 683 mmHg 95%
    09:00 +8°C° 0.1 mm 2 mps 683 mmHg 94%
    10:00 +8°C° 0.1 mm 2 mps 683 mmHg 94%
    11:00 +8°C° 0.1 mm 2 mps 683 mmHg 93%
    12:00 +9°C° 0.1 mm 2 mps 683 mmHg 93%
    13:00 +9°C° 0.1 mm 2 mps 682 mmHg 93%
    14:00 +9°C° 0.8 mm 2 mps 682 mmHg 94%
    15:00 +8°C° 0.8 mm 2 mps 682 mmHg 94%
    16:00 +8°C° 0.8 mm 2 mps 682 mmHg 95%
    17:00 +8°C° 4 mm 2 mps 682 mmHg 96%
    18:00 +8°C° 4 mm 2 mps 681 mmHg 97%
    19:00 +8°C° 4 mm 2 mps 681 mmHg 98%
    20:00 +9°C° 3.7 mm 1 mps 681 mmHg 98%
    21:00 +9°C° 3.7 mm 1 mps 681 mmHg 98%
    22:00 +9°C° 3.7 mm 1 mps 681 mmHg 98%
    23:00 +9°C° 1.5 mm 1 mps 682 mmHg 98%

    Day after tomorrow, 18 November, Monday

    Time Temperature Precipitation Wind Pressure Humidity
    00:00 +8°C° 1.5 mm 1 mps 682 mmHg 97%
    01:00 +8°C° 1.5 mm 1 mps 682 mmHg 97%
    02:00 +8°C° 0.4 mm 1 mps 682 mmHg 97%
    03:00 +7°C° 0.4 mm 1 mps 682 mmHg 96%
    04:00 +7°C° 0.4 mm 1 mps 682 mmHg 95%
    05:00 +6°C° 0 mm 1 mps 682 mmHg 95%
    06:00 +6°C° 0 mm 1 mps 682 mmHg 95%
    07:00 +6°C° 0 mm 1 mps 683 mmHg 95%
    08:00 +5°C° 0 mm 2 mps 683 mmHg 91%
    09:00 +6°C° 0 mm 2 mps 684 mmHg 87%
    10:00 +6°C° 0 mm 2 mps 685 mmHg 83%
    11:00 +7°C° 0 mm 2 mps 685 mmHg 79%
    12:00 +7°C° 0 mm 2 mps 685 mmHg 75%
    13:00 +8°C° 0 mm 2 mps 686 mmHg 71%
    14:00 +7°C° 0 mm 2 mps 686 mmHg 75%
    15:00 +7°C° 0 mm 1 mps 686 mmHg 80%
    16:00 +6°C° 0 mm 1 mps 686 mmHg 84%
    17:00 +6°C° 0 mm 1 mps 686 mmHg 85%
    18:00 +5°C° 0 mm 1 mps 686 mmHg 87%
    19:00 +5°C° 0 mm 1 mps 686 mmHg 88%
    20:00 +5°C° 0 mm 1 mps 686 mmHg 89%
    21:00 +5°C° 0 mm 1 mps 686 mmHg 89%
    22:00 +5°C° 0 mm 1 mps 687 mmHg 90%
    23:00 +5°C° 0.9 mm 1 mps 686 mmHg 92%

    19 November, Tuesday

    Time Temperature Precipitation Wind Pressure Humidity
    00:00 +5°C° 0.9 mm 1 mps 686 mmHg 94%
    01:00 +5°C° 0.9 mm 1 mps 686 mmHg 96%
    02:00 +5°C° 2.9 mm 1 mps 686 mmHg 96%
    03:00 +5°C° 2.9 mm 1 mps 686 mmHg 97%
    04:00 +5°C° 2.9 mm 1 mps 686 mmHg 98%
    05:00 +5°C° 3.5 mm 1 mps 686 mmHg 98%
    06:00 +4°C° 3.5 mm 0 mps 686 mmHg 98%
    07:00 +4°C° 3.5 mm 0 mps 686 mmHg 98%
    08:00 +5°C° 2.5 mm 0 mps 686 mmHg 98%
    09:00 +6°C° 2.5 mm 1 mps 686 mmHg 97%
    10:00 +6°C° 2.5 mm 1 mps 686 mmHg 97%
    11:00 +6°C° 2.8 mm 1 mps 685 mmHg 97%
    12:00 +6°C° 2.8 mm 1 mps 685 mmHg 97%
    13:00 +6°C° 2.8 mm 1 mps 685 mmHg 97%
    14:00 +6°C° 2.5 mm 1 mps 685 mmHg 97%
    15:00 +5°C° 2.5 mm 0 mps 685 mmHg 97%
    16:00 +5°C° 2.5 mm 0 mps 685 mmHg 98%
    17:00 +5°C° 1.1 mm 0 mps 685 mmHg 98%
    18:00 +5°C° 1.1 mm 0 mps 685 mmHg 98%
    19:00 +5°C° 1.1 mm 0 mps 685 mmHg 98%
    20:00 +5°C° 0.4 mm 0 mps 685 mmHg 98%
    21:00 +5°C° 0.4 mm 0 mps 685 mmHg 98%
    22:00 +5°C° 0.4 mm 0 mps 685 mmHg 98%
    23:00 +5°C° 0.1 mm 0 mps 685 mmHg 97%

    20 November, Wednesday

    Time Temperature Precipitation Wind Pressure Humidity
    00:00 +5°C° 0.1 mm 0 mps 685 mmHg 97%
    01:00 +5°C° 0.1 mm 1 mps 686 mmHg 96%
    02:00 +5°C° 0 mm 1 mps 686 mmHg 96%
    03:00 +4°C° 0 mm 1 mps 686 mmHg 95%
    04:00 +4°C° 0 mm 1 mps 686 mmHg 95%
    05:00 +3°C° 0 mm 1 mps 686 mmHg 94%
    06:00 +3°C° 0 mm 1 mps 686 mmHg 94%
    07:00 +3°C° 0 mm 1 mps 686 mmHg 94%
    08:00 +4°C° 0 mm 1 mps 687 mmHg 91%
    09:00 +5°C° 0 mm 1 mps 687 mmHg 88%
    10:00 +6°C° 0 mm 1 mps 688 mmHg 85%
    11:00 +6°C° 0 mm 1 mps 688 mmHg 82%
    12:00 +7°C° 0 mm 1 mps 688 mmHg 80%
    13:00 +8°C° 0 mm 1 mps 689 mmHg 77%
    14:00 +7°C° 0 mm 1 mps 688 mmHg 81%
    15:00 +6°C° 0 mm 1 mps 688 mmHg 85%
    16:00 +5°C° 0 mm 1 mps 688 mmHg 89%
    17:00 +4°C° 0 mm 1 mps 689 mmHg 90%
    18:00 +3°C° 0 mm 1 mps 689 mmHg 92%
    19:00 +3°C° 0 mm 1 mps 689 mmHg 94%
    20:00 +2°C° 0 mm 1 mps 689 mmHg 94%
    21:00 +2°C° 0 mm 1 mps 689 mmHg 94%
    22:00 +2°C° 0 mm 1 mps 689 mmHg 95%
    23:00 +2°C° 0 mm 1 mps 689 mmHg 94%

    21 November, Thursday

    Time Temperature Precipitation Wind Pressure Humidity
    00:00 +1°C° 0 mm 1 mps 689 mmHg 94%
    01:00 +1°C° 0 mm 1 mps 689 mmHg 94%
    02:00 +1°C° 0 mm 1 mps 688 mmHg 94%
    03:00 +1°C° 0 mm 1 mps 688 mmHg 94%
    04:00 +1°C° 0 mm 1 mps 688 mmHg 94%
    05:00 +1°C° 0 mm 1 mps 688 mmHg 94%
    06:00 +1°C° 0 mm 1 mps 688 mmHg 94%
    07:00 +1°C° 0 mm 1 mps 687 mmHg 93%
    08:00 +2°C° 0 mm 1 mps 688 mmHg 90%
    09:00 +3°C° 0 mm 1 mps 688 mmHg 87%
    10:00 +4°C° 0 mm 1 mps 688 mmHg 83%
    11:00 +5°C° 0 mm 1 mps 688 mmHg 82%
    12:00 +5°C° 0 mm 2 mps 687 mmHg 80%
    13:00 +5°C° 0 mm 2 mps 687 mmHg 79%
    14:00 +5°C° 0 mm 2 mps 687 mmHg 83%
    15:00 +4°C° 0 mm 2 mps 687 mmHg 87%
    16:00 +5°C° 0 mm 1 mps 687 mmHg 91%
    17:00 +5°C° 0 mm 1 mps 687 mmHg 92%
    18:00 +5°C° 0 mm 1 mps 687 mmHg 93%
    19:00 +4°C° 0 mm 1 mps 687 mmHg 94%
    20:00 +4°C° 0 mm 1 mps 688 mmHg 94%
    21:00 +4°C° 0 mm 1 mps 688 mmHg 94%
    22:00 +4°C° 0 mm 1 mps 688 mmHg 95%
    23:00 +4°C° 0 mm 1 mps 688 mmHg 95%
    Show more